Regional Weather Roundup
Issued by NWS

Home | Current Version | Previous Version | Graphics & Text | Print | Product List | Glossary On
Versions: 1 2 3 4 5 6 7 8 9 10 11 12 13 14 15 16 17 18 19 20 21 22 23 24 25 26 27 28 29 30 31 32 33 34 35 36 37 38 39 40 41 42 43 44 45 46 47 48 49 50
000
ASUS43 KFSD 181702
RWRSD

WEATHER ROUNDUP FOR SOUTH DAKOTA
NATIONAL WEATHER SERVICE SIOUX FALLS SD
1200 PM CDT THU SEP 18 2014

NOTE: "FAIR" INDICATES FEW OR NO CLOUDS BELOW 12,000 FEET WITH NO
SIGNIFICANT WEATHER AND/OR OBSTRUCTIONS TO VISIBILITY.


SDZ001>005-009-010-012>017-181800-
NORTHWEST AND NORTH CENTRAL SOUTH DAKOTA

CITY           SKY/WX    TMP DP  RH WIND       PRES   REMARKS
FAITH            N/A     68  59  73 S14       29.83F
MOBRIDGE       SUNNY     74  62  66 S16G23    29.83F
$$

SDZ012>016-024>037-041>051-057-063-072>074-181800-
SOUTHWEST AND SOUTH CENTRAL SOUTH DAKOTA

CITY           SKY/WX    TMP DP  RH WIND       PRES   REMARKS
RAPID CTY ARPT SUNNY     74  55  51 SE5       29.85F
PIERRE         SUNNY     74  58  57 S21       29.85F
CUSTER         SUNNY     81  39  22 SW7       30.00S
PHILIP         MOSUNNY   75  64  68 S12       29.83F
PINE RIDGE     SUNNY     75  59  57 S14       29.90S
WINNER         FAIR      75  59  57 S20G30    29.92F
$$

SDZ004>011-016>023-039-040-181800-
NORTHEAST SOUTH DAKOTA

CITY           SKY/WX    TMP DP  RH WIND       PRES   REMARKS
ABERDEEN       SUNNY     73  59  61 S15       29.91F
WATERTOWN      PTSUNNY   70  60  70 S17G25    29.98F
SISSETON         N/A     55  54  96 S12       29.98F
$$

SDZ017-020-022-023-036>040-048>070-181800-
SOUTHEAST SOUTH DAKOTA

CITY           SKY/WX    TMP DP  RH WIND       PRES   REMARKS
SIOUX FALLS    MOSUNNY   73  55  53 S18G25    30.02S
HURON          PTSUNNY   67  62  84 S16       29.93F
CHAMBERLAIN    SUNNY     71  61  71 S12G20    29.92S
MITCHELL       MOSUNNY   74  63  68 S17G23    29.96F
YANKTON        MOSUNNY   72  57  60 SE18      30.01R
$$

ABBREVIATIONS USED IN REMARKS
   TC - TEMPERATURE IN CELSIUS
  WCI - WIND CHILL INDEX
   HX - HEAT INDEX
  VSB - VISIBILITY



USA.gov is the U.S. government's official web portal to all federal, state and local government web resources and services.